Regional Weather Roundup
Issued by NWS

Home | Current Version | Previous Version | Text Only | Print | Product List | Glossary Off
Versions: 1 2 3 4 5 6 7 8 9 10 11 12 13 14 15 16 17 18 19 20 21 22 23 24 25 26 27 28 29 30 31 32 33 34 35 36 37 38 39 40 41 42 43 44 45 46 47 48 49 50

000
ASUS43 KLSX 261207
RWRMO

WEATHER SUMMARY FOR MISSOURI
NATIONAL WEATHER SERVICE SPRINGFIELD MO
700 AM CDT SAT JUL 26 2014

NOTE: "FAIR" INDICATES FEW OR NO CLOUDS BELOW 12,000 FEET WITH NO
       SIGNIFICANT WEATHER AND/OR OBSTRUCTIONS TO VISIBILITY.
       CURRENT SKY AND/OR WEATHER CONDITIONS ARE NOT AVAILABLE FOR
       CHILLICOTHE AND FARMINGTON.

MOZ001>031-035>038-043-044-053-054-261300-
...NORTHERN AND WESTERN MISSOURI...

CITY           SKY/WX    TMP DP  RH WIND       PRES   REMARKS
KANSAS CTY INT MOCLDY    76  70  82 S6        29.81S
6HR MIN TEMP:  74; 6HR MAX TEMP:  82;

KANSAS C DTWN  MOCLDY    82  70  66 SW8       29.81R
6HR MIN TEMP:  82; 6HR MAX TEMP:  84;

LEE`S SUMMIT   PTCLDY    78  70  76 S10       29.83F
6HR MIN TEMP:  78; 6HR MAX TEMP:  81;

ST JOSEPH      PTCLDY    76  74  93 S5        29.79S
6HR MIN TEMP:  72; 6HR MAX TEMP:  83;

CHILLICOTHE      N/A     75  72  90 S6        29.83S
6HR MIN TEMP:  73; 6HR MAX TEMP:  82;

KIRKSVILLE     CLEAR     74  72  93 SW6       29.82F FOG
6HR MIN TEMP:  72; 6HR MAX TEMP:  75;


$$
MOZ066>068-077>081-088>096-101>105-261300-
...SOUTHWEST MISSOURI...

CITY           SKY/WX    TMP DP  RH WIND       PRES   REMARKS
SPRINGFIELD    MOCLDY    73  71  93 S12       29.95R FOG
6HR MIN TEMP:  73; 6HR MAX TEMP:  75;

JOPLIN         PTCLDY    77  71  82 S14       29.92S
6HR MIN TEMP:  77; 6HR MAX TEMP:  80;


$$
MOZ032>034-039>042-045>050-055>058-069>072-261300-
...CENTRAL MISSOURI...

CITY           SKY/WX    TMP DP  RH WIND       PRES   REMARKS
COLUMBIA       PTCLDY    74  72  93 S7        29.88R
6HR MIN TEMP:  72; 6HR MAX TEMP:  77;

JEFFERSON CITY MOCLDY    76  71  85 SE3       29.87S
6HR MIN TEMP:  74; 6HR MAX TEMP:  77;

ROLLA          CLOUDY    73  70  90 SW15      29.91R
6HR MIN TEMP:  72; 6HR MAX TEMP:  74;

SEDALIA        PTCLDY    78  71  79 SW17      29.86S HAZE
6HR MIN TEMP:  78; 6HR MAX TEMP:  82;

WHITEMAN AFB   CLEAR     77  64  64 SW14      29.84S
OSAGE BEACH    PTCLDY    79  70  73 SW10      29.90S

$$
MOZ051-052-059>065-261300-
...EAST CENTRAL MISSOURI...

CITY           SKY/WX    TMP DP  RH WIND       PRES   REMARKS
ST LOUIS INTL  MOSUNNY   73  66  78 S3        29.89R
6HR MIN TEMP:  73; 6HR MAX TEMP:  75;

SPIRIT OF STL  PTSUNNY   74  68  81 CALM      29.87S
6HR MIN TEMP:  71; 6HR MAX TEMP:  74;

ST CHARLES     MOSUNNY   69  67  93 E3        29.87S
6HR MIN TEMP:  67; 6HR MAX TEMP:  69;


$$
MOZ072>076-082>087-097>100-106>115-261300-
...SOUTH CENTRAL AND SOUTHEAST MISSOURI...

CITY           SKY/WX    TMP DP  RH WIND       PRES   REMARKS
CAPE GIRARDEAU SUNNY     69  66  90 S7        29.96R FOG
6HR MIN TEMP:  66; 6HR MAX TEMP:  70;

FARMINGTON     MOSUNNY   72  68  88 S7        29.96R
6HR MIN TEMP:  70; 6HR MAX TEMP:  72;

POPLAR BLUFF   CLEAR     69  65  86 S6        29.95R FOG
6HR MIN TEMP:  66; 6HR MAX TEMP:  69;

WEST PLAINS    PTCLDY    71  69  93 SW6       29.99S FOG
6HR MIN TEMP:  69; 6HR MAX TEMP:  72;


$$



USA.gov is the U.S. government's official web portal to all federal, state and local government web resources and services.